Temperature
29 29 29 30 31 32 32 32 31 32 34 33 32 32 32 31 31 31 30 28 27 25 24 22 21 20 20 19 19 18 18 18 17 17 17 18 18 18 17 18 18 18 17 17
29 29 30 31 32 32 32 31 32 32 33 33 32 32 32 31 31 30 30 28 27 25 23 22 21 20 19 19 18 18 18 18 17 17 18 18 18 17 17 17 18 17 17 17
29 30 32 31 31 31 31 31 31 31 32 32 32 31 30 30 30 29 29 28 27 25 24 22 21 20 19 19 18 18 18 17 17 17 17 17 17 17 17 17 17 17 17 17
30 31 32 31 31 31 30 32 32 32 31 30 30 29 29 29 28 29 29 28 27 26 24 23 21 20 19 19 18 18 18 17 17 17 17 17 17 17 17 17 17 17 17 17
30 31 31 31 31 32 31 32 32 31 30 29 29 29 28 28 27 27 28 28 27 26 24 23 21 20 19 19 18 18 17 17 17 17 17 17 17 18 17 17 17 17 17 17
31 32 32 32 32 32 32 32 31 31 29 27 27 27 27 27 27 28 29 28 27 26 24 23 21 20 19 19 18 18 17 17 17 17 17 17 17 17 17 17 17 17 17 17
30 31 32 32 31 32 32 30 28 28 27 26 26 26 27 29 30 30 29 28 27 26 24 23 22 20 19 19 18 18 18 17 17 17 17 17 17 17 17 17 17 17 17 17
29 29 31 32 31 31 31 30 28 27 26 26 25 25 28 30 31 30 29 28 27 26 24 23 22 21 20 19 18 18 18 17 17 17 17 17 17 17 17 17 17 17 17 17
30 30 32 32 32 32 30 30 31 29 28 27 26 26 28 30 30 30 29 28 27 26 25 23 22 21 20 19 19 18 18 18 17 17 17 17 17 17 17 17 17 17 17 17
30 29 31 32 32 32 32 31 30 29 27 27 27 26 26 27 28 28 29 28 27 26 25 23 22 21 20 19 19 18 18 18 17 17 17 17 17 17 17 17 17 17 17 17
31 29 30 31 30 30 31 30 30 29 29 27 27 26 27 27 27 28 28 28 27 26 25 23 22 21 20 20 19 18 18 18 17 17 17 17 17 17 17 17 17 17 17 17
30 30 29 30 31 31 31 30 29 28 27 28 27 26 28 27 28 28 28 27 26 25 24 23 22 21 20 20 19 18 18 18 17 17 17 17 17 17 17 17 17 17 17 17
29 28 27 28 29 29 29 30 29 29 28 28 27 27 28 28 28 28 27 26 25 24 23 22 21 21 20 19 19 18 18 18 17 17 17 17 17 17 17 17 17 17 17 17
28 27 27 26 26 26 26 27 28 28 28 28 28 27 27 27 26 26 26 25 25 23 22 22 21 20 19 19 19 18 18 18 17 17 17 17 17 17 17 17 17 17 17 17
28 27 27 27 27 27 26 26 27 27 28 28 28 28 27 26 25 25 25 25 24 23 22 21 20 20 19 19 18 18 18 18 18 17 17 17 17 17 17 17 17 17 17 17
27 26 26 26 27 27 26 27 27 27 27 28 28 28 28 26 25 24 24 24 24 23 22 21 20 19 19 18 18 18 18 18 18 17 17 17 17 17 17 17 17 17 17 17
26 25 24 25 26 26 26 27 27 27 28 28 27 27 27 25 24 24 23 23 23 22 21 20 20 19 18 18 18 18 18 17 17 17 17 17 17 17 17 17 16 16 16 16
25 24 24 24 24 23 26 28 28 27 28 28 27 27 26 24 23 22 22 22 21 21 20 20 19 19 18 18 18 18 17 17 17 17 17 17 16 16 16 16 16 16 16 16
25 24 23 23 23 24 26 26 26 26 26 26 25 24 24 23 22 21 20 20 19 19 19 19 19 18 18 18 18 17 17 17 17 17 16 16 16 16 16 16 16 16 16 16
25 24 23 23 22 22 24 25 25 25 24 23 22 22 22 23 22 19 18 18 18 18 18 18 18 18 18 17 17 17 17 17 16 16 16 16 16 16 16 16 16 16 15 15
22 22 22 22 22 23 22 23 24 23 21 21 21 21 20 21 20 18 17 17 16 16 16 16 17 17 17 17 17 16 16 16 16 16 16 16 16 16 15 15 15 15 15 15
21 21 21 21 21 21 21 22 20 19 19 19 19 19 18 17 17 16 16 15 15 15 15 15 15 15 16 16 16 16 15 15 15 15 15 15 15 15 15 15 15 15 15 14
21 21 21 20 20 19 18 18 18 18 18 18 17 17 16 16 16 15 14 14 14 14 14 14 14 14 14 15 15 15 15 15 15 15 14 14 14 14 14 14 14 14 14 14
20 21 20 20 19 18 17 17 16 16 16 16 16 16 16 15 14 14 13 13 13 13 13 13 13 13 13 13 14 14 14 14 14 14 14 14 14 14 14 14 13 13 13 13
19 19 19 18 18 17 16 15 15 15 15 15 15 15 15 14 13 13 12 12 12 12 12 12 12 12 12 12 13 13 13 13 13 13 13 13 13 13 13 13 13 12 12 12
18 18 17 16 15 15 14 13 13 14 13 13 13 13 13 13 12 12 12 12 11 11 11 11 11 11 11 11 11 12 12 12 12 12 12 13 13 12 12 12 12 11 11 11
Wind_Speed
15 15 15 16 17 17 16 13 11 11 7 7 9 8 7 6 5 5 6 7 9 9 11 12 12 13 12 11 11 12 12 11 10 9 9 7 7 6 5 6 9 10 9 8
16 19 19 18 17 15 16 15 13 9 7 8 10 10 8 4 5 5 5 7 8 10 11 12 12 12 12 12 12 12 11 12 12 10 8 7 8 6 6 5 7 10 9 8
21 17 17 18 17 15 15 14 14 12 11 11 11 11 8 4 3 4 5 7 9 11 12 13 13 12 12 12 12 12 11 11 12 11 8 7 6 6 6 7 7 7 9 8
19 20 14 13 15 15 14 13 14 14 12 11 11 9 5 5 4 6 6 7 9 10 11 12 13 12 12 11 11 10 11 11 12 12 11 11 10 8 8 7 6 7 7 7
17 17 17 16 15 15 14 12 12 13 12 12 12 10 3 3 3 6 6 5 7 9 10 11 11 12 11 12 11 10 11 11 11 12 12 12 10 8 7 7 8 7 6 6
18 16 15 16 14 14 13 13 13 11 10 12 10 10 7 5 8 8 8 8 7 9 9 10 10 11 11 11 11 11 12 11 12 12 12 12 11 10 10 10 9 8 6 6
18 18 15 12 14 14 14 12 10 10 9 9 9 8 6 6 8 8 8 8 9 10 10 10 10 11 11 11 11 11 13 12 12 13 12 12 11 10 10 10 10 8 7 6
16 15 18 16 15 14 14 14 12 11 7 5 5 6 5 4 7 8 8 9 9 10 9 9 10 10 11 12 12 12 12 12 13 13 11 10 11 9 8 9 8 8 7 7
11 12 13 15 15 16 15 14 15 13 13 9 6 5 6 4 5 7 8 9 9 9 10 9 10 10 11 12 11 12 12 12 12 12 10 10 10 9 8 8 8 6 5 7
16 11 9 11 12 15 15 13 9 9 9 11 6 3 3 1 3 4 6 7 9 9 10 10 9 9 11 10 10 11 11 11 10 11 11 10 9 8 8 8 8 7 7 6
16 14 11 10 12 13 14 15 12 9 9 9 8 2 1 3 4 4 6 8 8 8 9 9 9 9 10 10 11 10 10 10 10 10 10 9 9 8 8 7 8 7 7 7
12 11 12 12 10 10 11 12 11 9 10 10 9 4 3 5 3 4 6 8 8 7 8 9 8 8 9 10 10 10 10 10 10 9 9 8 8 8 8 8 7 7 7 7
5 7 11 12 10 8 9 10 11 11 10 10 11 4 3 2 2 3 6 8 9 8 8 8 8 6 6 8 8 9 10 9 9 9 9 9 8 8 8 8 7 7 7 7
4 8 11 11 5 4 8 12 12 11 10 11 11 6 2 2 2 1 4 7 9 9 8 7 8 7 6 6 7 8 8 8 9 8 9 9 9 8 7 6 7 6 7 7
6 11 12 12 9 7 9 12 13 15 14 13 12 10 4 4 4 3 4 6 9 9 8 8 7 8 7 6 6 7 7 7 7 7 8 8 7 7 7 6 6 6 6 7
5 7 10 12 13 12 12 13 14 15 15 16 13 8 2 5 4 3 3 4 7 8 8 8 8 8 8 7 6 7 7 7 7 6 6 6 7 6 5 6 6 5 5 5
4 6 10 13 13 14 15 13 12 12 13 13 12 6 1 5 4 4 3 3 5 6 7 7 7 7 7 6 6 6 6 6 6 6 5 6 6 6 5 6 5 5 5 5
7 6 6 11 13 16 11 8 9 11 11 9 6 5 3 5 5 5 4 5 5 6 6 7 6 7 7 6 7 7 7 7 6 6 5 5 5 6 5 5 4 4 4 4
7 6 7 10 13 13 10 7 7 7 8 6 4 4 4 6 6 7 7 8 8 7 6 6 6 7 7 7 7 7 7 7 6 6 5 5 4 5 5 4 4 3 3 3
7 5 7 10 12 11 5 7 7 6 5 10 8 5 2 2 1 3 7 9 9 8 7 7 7 8 8 7 8 8 7 7 6 6 6 6 5 4 5 4 4 3 3 3
6 6 10 12 12 8 6 8 7 5 3 9 6 3 3 3 4 7 8 10 10 9 10 9 9 8 7 7 8 9 8 7 6 6 7 6 6 6 5 4 4 4 4 4
5 5 7 8 10 5 11 8 5 5 8 7 6 6 8 9 10 10 11 11 11 10 10 10 10 10 9 8 9 10 8 7 7 8 7 7 6 6 6 5 5 4 4 5
2 3 3 2 1 5 8 6 6 6 5 4 4 5 6 8 10 12 12 12 12 12 12 12 12 12 11 10 10 11 8 8 9 9 9 9 9 8 7 7 6 5 4 4
2 4 4 3 1 6 8 8 8 7 4 3 3 4 6 9 12 12 12 12 12 12 11 11 13 13 12 12 12 10 9 9 9 10 9 9 10 10 10 9 9 8 7 6
3 3 3 4 3 4 7 7 8 6 5 5 6 6 9 12 13 13 13 12 12 11 11 11 12 13 13 12 12 11 10 9 9 9 8 9 10 10 9 10 9 9 8 7
4 3 2 2 4 3 4 6 6 6 7 8 9 11 10 12 14 14 13 12 12 12 12 12 13 13 13 12 12 10 9 9 9 9 8 7 7 7 7 8 9 13 11 12
Wind_Direction
219 229 236 240 242 253 272 277 266 257 241 241 262 267 252 210 229 221 187 165 158 163 163 158 161 160 159 161 166 169 174 172 168 171 175 177 175 172 168 163 155 160 163 161
223 229 240 251 257 261 268 275 275 278 281 275 278 279 271 229 227 214 190 161 161 159 161 158 161 165 167 167 172 177 178 173 172 175 177 178 171 172 169 162 153 160 159 164
230 236 230 240 253 256 259 265 272 279 280 272 274 269 268 239 229 208 202 169 165 166 168 163 168 171 170 170 177 181 178 174 174 174 175 177 164 167 170 161 161 163 163 170
235 246 249 244 248 251 255 258 267 273 276 278 279 277 245 212 221 227 205 178 165 165 162 162 166 171 173 172 175 172 173 179 180 179 181 178 176 175 174 167 160 161 165 165
233 236 243 246 249 250 257 264 268 272 275 277 280 281 262 138 207 234 186 170 158 153 152 157 164 170 173 172 172 171 172 179 183 185 184 182 180 175 166 158 154 160 166 168
249 239 235 245 246 246 255 261 265 267 271 268 278 276 257 200 195 200 177 160 157 145 145 149 159 163 167 168 170 171 173 176 179 185 187 187 182 176 169 163 163 167 168 176
242 245 237 236 246 238 235 244 252 250 248 263 292 277 254 202 178 164 152 144 145 144 146 152 158 161 164 168 173 173 173 178 182 185 189 190 184 178 173 170 172 174 174 178
228 233 230 224 231 243 230 238 248 261 265 267 266 268 262 177 139 135 136 136 140 145 147 150 156 161 164 169 172 173 174 177 181 183 185 186 182 181 180 179 175 183 182 177
245 237 222 214 219 236 244 240 251 262 273 268 238 231 246 162 140 136 135 139 146 144 144 151 156 161 164 167 170 173 173 175 178 180 179 182 182 187 182 174 178 185 182 170
261 278 251 214 214 226 244 254 258 263 274 279 264 239 277 180 174 160 153 144 138 141 147 147 151 155 158 162 166 166 167 169 172 172 176 181 184 187 180 179 186 186 187 176
243 259 260 233 218 231 228 242 256 271 275 281 285 283 310 241 201 191 164 139 138 144 142 143 147 148 146 151 153 155 157 159 166 171 176 175 176 184 182 186 191 185 180 173
236 250 259 252 244 246 243 238 245 255 268 276 283 271 184 203 184 176 140 127 128 126 127 130 135 136 143 146 151 154 159 164 167 169 172 174 179 182 182 188 188 183 183 183
281 255 255 251 249 258 257 255 261 257 256 264 270 253 163 150 112 101 114 128 127 123 123 125 125 128 137 142 145 150 156 161 165 166 170 172 181 187 187 185 183 185 187 190
284 259 260 263 265 293 289 286 283 275 261 261 266 268 220 118 84 74 119 135 136 132 129 129 132 134 134 134 139 146 154 157 162 165 169 174 180 183 182 182 184 186 190 193
259 256 260 269 266 258 263 267 275 278 275 275 275 278 274 155 137 140 149 142 138 138 138 136 138 139 139 141 142 147 149 150 155 160 165 169 170 174 177 180 184 183 185 196
229 274 279 270 265 255 255 253 258 266 273 274 272 271 272 133 124 114 106 133 141 141 141 138 141 140 142 147 148 149 150 148 145 148 153 153 159 166 171 172 176 179 184 191
266 260 270 272 271 272 261 259 258 265 268 275 279 287 105 110 102 102 112 111 118 128 129 127 135 137 139 144 139 140 140 140 142 144 152 151 156 162 169 180 180 183 185 186
262 277 274 272 278 268 276 287 282 276 277 292 310 337 34 98 92 79 81 101 111 106 109 116 128 130 135 137 139 136 136 132 133 135 141 147 158 163 164 167 171 175 168 173
230 244 258 266 268 268 279 309 312 298 297 349 6 32 52 87 84 65 61 77 87 88 89 105 114 121 120 122 124 125 126 127 129 134 135 135 141 151 153 157 154 158 160 163
218 205 241 257 265 268 304 352 345 311 275 25 29 38 70 145 154 86 64 76 76 76 77 85 96 95 100 112 120 118 121 120 120 122 121 118 110 119 130 131 129 126 126 127
221 231 243 256 261 260 5 348 327 274 347 6 3 36 40 25 82 102 88 83 79 78 76 72 74 81 86 96 103 107 109 111 115 111 106 104 106 107 98 97 101 106 112 111
239 245 246 255 259 265 16 7 11 1 357 2 14 48 68 83 95 97 91 90 88 82 80 77 74 72 69 80 93 96 92 95 99 99 96 92 87 88 91 88 86 87 97 112
260 288 277 255 287 26 23 13 354 342 343 4 39 74 89 101 103 99 97 93 87 82 79 76 77 71 64 65 77 84 78 81 88 88 83 81 76 65 63 70 73 72 71 76
328 341 312 304 16 24 13 9 9 7 5 13 66 100 113 111 108 103 101 95 88 83 82 81 81 78 69 63 65 70 73 76 80 80 81 81 78 70 60 55 55 53 44 45
355 329 312 300 327 1 11 8 9 15 40 58 69 81 100 109 107 104 98 93 89 86 82 81 81 79 75 69 64 63 65 71 77 76 74 80 81 79 74 67 59 63 54 57
6 358 325 335 5 353 358 16 32 65 77 86 90 88 92 101 104 102 98 94 91 88 85 83 81 81 77 72 65 58 57 63 69 74 68 75 82 86 92 94 81 60 70 69
Height
1463 1466 1464 1457 1450 1448 1445 1447 1450 1442 1433 1437 1441 1442 1441 1443 1446 1448 1452 1456 1461 1466 1471 1474 1478 1481 1484 1486 1489 1492 1495 1498 1504 1509 1514 1518 1523 1526 1530 1534 1536 1539 1542 1544
1461 1461 1454 1448 1444 1443 1445 1448 1445 1438 1433 1436 1440 1441 1438 1439 1443 1447 1450 1454 1459 1464 1469 1472 1476 1479 1482 1484 1487 1490 1493 1495 1500 1506 1511 1516 1521 1525 1529 1532 1535 1537 1540 1543
1457 1449 1444 1445 1445 1446 1446 1448 1446 1444 1437 1435 1441 1445 1442 1441 1443 1447 1450 1452 1457 1461 1466 1470 1474 1477 1480 1482 1484 1487 1490 1494 1497 1503 1509 1515 1519 1524 1528 1530 1533 1536 1539 1541
1448 1443 1441 1442 1444 1444 1449 1440 1440 1442 1446 1450 1446 1460 1448 1443 1445 1446 1448 1451 1454 1459 1463 1467 1471 1474 1477 1480 1483 1485 1489 1492 1496 1502 1507 1511 1515 1519 1524 1528 1531 1534 1537 1540
1443 1439 1440 1443 1441 1439 1441 1435 1437 1440 1446 1452 1449 1458 1455 1446 1451 1448 1446 1449 1453 1457 1461 1465 1469 1472 1475 1478 1481 1483 1487 1490 1494 1499 1504 1509 1513 1518 1522 1526 1530 1533 1536 1538
1434 1431 1432 1434 1433 1434 1435 1437 1439 1441 1449 1466 1461 1464 1462 1447 1446 1444 1443 1447 1452 1456 1460 1464 1468 1470 1474 1477 1479 1482 1485 1488 1492 1497 1502 1507 1511 1516 1520 1524 1527 1531 1534 1537
1439 1431 1428 1430 1434 1433 1435 1448 1462 1467 1470 1474 1460 1462 1454 1436 1433 1436 1440 1445 1450 1454 1459 1462 1466 1469 1472 1475 1478 1480 1483 1486 1490 1495 1500 1505 1509 1514 1518 1522 1525 1528 1531 1534
1443 1442 1427 1426 1432 1435 1435 1442 1463 1475 1475 1472 1464 1467 1446 1430 1431 1435 1439 1443 1448 1453 1457 1461 1465 1468 1471 1474 1476 1479 1481 1484 1488 1493 1498 1503 1507 1512 1516 1520 1523 1526 1530 1532
1433 1434 1418 1419 1422 1428 1435 1437 1434 1448 1453 1465 1462 1456 1440 1430 1431 1434 1438 1443 1447 1451 1456 1460 1464 1467 1470 1473 1475 1477 1480 1482 1487 1491 1496 1501 1505 1510 1514 1517 1521 1525 1528 1531
1425 1434 1421 1416 1420 1423 1427 1429 1435 1447 1464 1470 1459 1456 1453 1439 1438 1437 1439 1442 1446 1451 1455 1460 1463 1466 1469 1472 1474 1477 1479 1481 1485 1490 1494 1499 1503 1508 1512 1515 1519 1523 1526 1529
1421 1433 1429 1422 1426 1429 1429 1433 1435 1439 1444 1461 1467 1462 1440 1439 1437 1438 1439 1442 1446 1450 1454 1459 1463 1466 1469 1471 1473 1476 1478 1482 1486 1489 1493 1498 1501 1505 1509 1513 1517 1520 1523 1526
1419 1426 1433 1426 1417 1417 1422 1428 1434 1451 1452 1448 1455 1458 1433 1435 1435 1438 1438 1443 1447 1451 1455 1459 1463 1466 1469 1471 1474 1476 1479 1482 1485 1488 1492 1496 1500 1503 1507 1510 1514 1518 1521 1524
1423 1430 1444 1441 1433 1427 1428 1427 1429 1433 1440 1447 1456 1453 1433 1432 1435 1437 1440 1444 1448 1452 1456 1460 1463 1466 1469 1471 1474 1476 1479 1482 1485 1488 1492 1495 1498 1502 1505 1509 1512 1515 1518 1521
1427 1432 1441 1449 1446 1442 1441 1436 1431 1436 1444 1445 1444 1442 1436 1435 1438 1440 1442 1445 1449 1453 1457 1460 1463 1467 1469 1472 1474 1476 1479 1482 1485 1488 1491 1494 1497 1500 1503 1506 1509 1512 1515 1518
1428 1435 1435 1434 1433 1436 1440 1440 1437 1439 1437 1441 1438 1436 1435 1436 1439 1442 1444 1446 1449 1453 1457 1460 1464 1467 1470 1472 1474 1477 1479 1482 1485 1488 1490 1493 1496 1499 1502 1504 1506 1510 1513 1516
1430 1437 1438 1440 1434 1434 1437 1435 1435 1434 1433 1432 1430 1434 1431 1435 1440 1443 1446 1447 1449 1453 1456 1460 1464 1467 1469 1471 1474 1476 1479 1481 1484 1487 1489 1492 1495 1497 1500 1502 1505 1508 1511 1513
1433 1440 1445 1445 1436 1436 1442 1432 1430 1431 1428 1429 1433 1432 1431 1436 1440 1445 1447 1448 1450 1453 1457 1460 1463 1466 1468 1471 1473 1476 1479 1481 1484 1486 1489 1492 1494 1496 1499 1501 1504 1507 1509 1511
1437 1441 1445 1446 1446 1456 1435 1422 1423 1427 1426 1424 1426 1429 1432 1437 1442 1446 1448 1449 1452 1454 1457 1461 1464 1466 1469 1471 1474 1476 1479 1481 1484 1486 1489 1491 1494 1496 1498 1501 1503 1505 1507 1509
1432 1439 1446 1448 1450 1443 1432 1426 1426 1430 1431 1429 1431 1434 1437 1440 1443 1448 1450 1451 1453 1456 1458 1461 1464 1466 1468 1471 1473 1476 1479 1481 1484 1486 1488 1491 1493 1495 1497 1499 1501 1503 1505 1507
1430 1436 1446 1447 1453 1453 1440 1431 1428 1431 1437 1437 1438 1439 1441 1441 1445 1453 1454 1454 1456 1458 1460 1462 1464 1466 1468 1471 1474 1476 1479 1482 1484 1486 1489 1491 1493 1495 1495 1498 1500 1502 1504 1505
1439 1442 1446 1448 1450 1442 1439 1434 1432 1444 1449 1444 1442 1442 1443 1444 1448 1454 1455 1457 1458 1460 1462 1464 1465 1467 1469 1472 1475 1477 1480 1482 1485 1487 1489 1491 1493 1494 1495 1498 1500 1501 1503 1504
1441 1445 1447 1448 1452 1451 1443 1439 1445 1449 1447 1445 1445 1445 1446 1448 1452 1455 1457 1459 1461 1463 1464 1466 1467 1469 1471 1474 1476 1478 1481 1483 1486 1488 1490 1491 1493 1496 1497 1499 1500 1501 1503 1504
1438 1441 1441 1445 1450 1448 1447 1448 1449 1448 1447 1447 1448 1448 1449 1451 1454 1458 1460 1462 1463 1465 1467 1468 1470 1472 1474 1476 1478 1480 1483 1485 1487 1489 1491 1493 1495 1497 1498 1500 1501 1502 1504 1505
1440 1439 1441 1443 1445 1448 1449 1449 1449 1448 1447 1448 1449 1450 1451 1454 1457 1460 1462 1464 1466 1468 1470 1472 1473 1475 1477 1479 1481 1483 1485 1487 1488 1490 1493 1495 1496 1498 1499 1501 1502 1503 1504 1505
1444 1444 1445 1448 1449 1450 1451 1451 1450 1448 1447 1448 1450 1451 1453 1456 1459 1462 1465 1468 1470 1472 1474 1475 1477 1479 1481 1483 1485 1486 1488 1490 1491 1493 1495 1497 1498 1499 1501 1502 1504 1505 1505 1506
1447 1448 1450 1452 1454 1454 1455 1453 1451 1449 1449 1450 1452 1454 1457 1459 1462 1465 1468 1471 1474 1476 1478 1480 1482 1484 1485 1487 1489 1490 1492 1493 1494 1495 1497 1499 1501 1502 1503 1504 1505 1506 1507 1508